Lexington Weather

Lexington, Massachusetts, USA

39°F
3/2/2024 8:49am 
  • Lexington Conditions: Mostly cloudy
  • Temperature: 39.2°F / 4.0°CWarmer 1.6°F than last hour.
  • Dew Point: 33.3°FIncreased 0.9°Fsince last hour.
  • Relative Humidity: 79%Decreased 2.0% since last hour.
  • Wind: Calm, 10-min avg: Calm, gust: None
  • Barometer: 30.45 in Steady
  • Visibility: 10 miles
  • Rain Today: 0.00 in
  •   

Regional Weather Roundup
for Boston, MA

        
000
ASUS41 KBOX 291410
RWRBOX

REGIONAL WEATHER ROUNDUP
NATIONAL WEATHER SERVICE BOSTON/NORTON MA
900 AM EST THU FEB 29 2024

NOTE:  "FAIR" INDICATES FEW OR NO CLOUDS BELOW 12,000 FEET WITH NO 
SIGNIFICANT WEATHER AND/OR OBSTRUCTIONS TO VISIBILITY.

MAZALL-291500-
EASTERN MASSACHUSETTS
  
CITY           SKY/WX    TMP DP  RH WIND       PRES   REMARKS
BOSTON         MOSUNNY   29   6  38 NW24G36   30.13R WCI  15          
BEVERLY        SUNNY     28   4  35 W25G43    30.10R WCI  13          
LAWRENCE       SUNNY     27   2  34 NW22G40   30.12R WCI  13          
BEDFORD        MOSUNNY   27   5  39 NW15G30   30.12R WCI  15          
NORWOOD        MOSUNNY   31   8  38 W12G24    30.14R WCI  22          
MARSHFIELD     SUNNY     30   7  37 W13G30    30.13R WCI  20          
PLYMOUTH       SUNNY     31  10  41 W18G35    30.13R WCI  19          
TAUNTON        MOSUNNY   32   9  38 W9G21     30.16R WCI  24          
NEW BEDFORD    SUNNY     31  11  43 W15G26    30.16R WCI  20          
$$

MAZALL-291500-
CAPE COD AND THE ISLANDS
  
CITY           SKY/WX    TMP DP  RH WIND       PRES   REMARKS
FALMOUTH       SUNNY     30   7  37 SW17G29   30.15R WCI  18          
HYANNIS        SUNNY     30   7  37 NW16G26   30.13R WCI  19          
CHATHAM        SUNNY     31   8  38 NW14G33   30.13R WCI  21          
PROVINCETOWN   SUNNY     30  13  49 NW18G26   30.14R WCI  18          
NANTUCKET      SUNNY     33  13  43 NW21G35   30.16R WCI  21          
MARTHAS VNYRD  MOSUNNY   32  12  43 NW17G24   30.17R WCI  21          
$$
 
MAZALL-291500-
CENTRAL AND WESTERN MASSACHUSETTS
  
CITY           SKY/WX    TMP DP  RH WIND       PRES   REMARKS
WORCESTER      MOSUNNY   24   8  50 NW23G33   30.08R WCI   9          
FITCHBURG      MOSUNNY   28   4  35 NW24G35   30.13R WCI  14          
ORANGE         MOSUNNY   26   5  40 W15G30    30.15R WCI  14          
SPRINGFIELD    MOSUNNY   29   9  42 NW14      30.16R WCI  18          
WESTFIELD      MOSUNNY   27  12  54 NW16G25   30.19R WCI  14          
NORTH ADAMS    CLOUDY    23   7  50 W13G21    30.15R WCI  11          
PITTSFIELD     CLOUDY    20   9  62 NW16G30   30.11R WCI   6          
$$
 
RIZALL-291500-
RHODE ISLAND
  
CITY           SKY/WX    TMP DP  RH WIND       PRES   REMARKS
PROVIDENCE     MOSUNNY   30  11  45 W17G33    30.18R WCI  18          
NEWPORT        MOSUNNY   30  13  49 NW15G29   30.18R WCI  19          
BLOCK ISLAND   PTSUNNY   32  16  51 W12       30.21R WCI  23          
SMITHFIELD     PTSUNNY   28  13  53 NW16      30.15R WCI  16          
WESTERLY       MOSUNNY   31  13  47 W10G20    30.20R WCI  22          
$$
 
CTZALL-291500-
CONNECTICUT
  
CITY           SKY/WX    TMP DP  RH WIND       PRES   REMARKS
BRADLEY INTL   MOSUNNY   29  12  49 NW13G23   30.20R WCI  19          
HARTFORD       PTSUNNY   31  14  49 NW15G26   30.20R WCI  20          
PLAINVILLE     CLOUDY    29  12  49 VRB6      30.19R WCI  23          
BRIDGEPORT     MOSUNNY   33   8  35 NW31G46   30.21R WCI  19          
DANBURY        MOSUNNY   32   6  33 W12G31    30.21R WCI  23          
GROTON         NOT AVBL                                               
NEW HAVEN      SUNNY     34  12  40 W13G31    30.22R WCI  25          
CHESTER        MOSUNNY   30   9  40 NW13G24   30.18R WCI  20          
MERIDEN        CLOUDY    31   7  36 W20G31    30.20R WCI  19          
WILLIMANTIC    MOSUNNY   29  11  47 W16G28    30.19R WCI  17          
OXFORD         MOSUNNY   28   9  44 W12G30    30.18R WCI  18          
$$

MEZ002-015-021-024-NHZ003-005-008-011-012-014-VTZ005-008-291500-
NORTHERN NEW ENGLAND
  
CITY           SKY/WX    TMP DP  RH WIND       PRES   REMARKS
PORTLAND ME    MOSUNNY   24   6  46 NW13G23   30.03R WCI  12          
BANGOR ME      MOSUNNY   17   4  56 W14G26    29.93R WCI   3          
CONCORD NH     SUNNY     26  -1  31 NW26G40   30.07R WCI  10          
MANCHESTER NH  MOSUNNY   28   1  31 W23G36    30.08R WCI  14          
NASHUA NH      SUNNY     27   3  35 NW16G33   30.12R WCI  15          
PORTSMOUTH NH  SUNNY     28  -2  27 W21G33    30.06R WCI  15          
JAFFREY NH     MOSUNNY   24   2  38 W12G31    30.07R WCI  13          
KEENE NH       MOSUNNY   24   4  42 W15G23    30.11R WCI  11          
BURLINGTON VT  MOSUNNY   19  -2  39 NW23G30   30.12R WCI   2          
MT. WASHINGTON BLWGSNOW -11 -11 100 W90G101     N/A  VSB 1/16WCI -53  
$$

NYZ052-076-291500-
EASTERN NEW YORK
  
CITY           SKY/WX    TMP DP  RH WIND       PRES   REMARKS
ALBANY         FLURRIES  25  14  63 W7        30.22R WCI  17          
NEW YORK CITY  MOSUNNY   33  10  38 NW17G32   30.26R WCI  22          
$$
 
ANZALL-291500-
MARINE OBSERVATIONS
  
STATION/POSITION TIME  TEMP    WIND        PRES    VSBY  WAVE
                       AIR SEA DIR/SP/G                  HT/PER
                 (UTC) (F)     (DEG/KT/KT) (MB)    (MI)  (FT/S)
BOSTON BUOY      1350   29 40  290/ 21/ 31 1019.9R         5/ 5
BUZZARDS BAY     1300   29     300/ 28/ 32 1021.4R
NANTUCKET SOUND  1350   31 38  290/ 23/ 33 1020.7R         3/ 4
MASS BAY-STELLWA NOT AVBL
ISLE OF SHOALS   1300   26     290/ 29/ 35 1016.3R
S OF BLOCK IS    1356      42                N/A          10/10
$$

......................KEY.........................
  SKY/WX - SKY CONDITION/PRESENT WEATHER
  TMP    - TEMPERATURE IN FAHRENHEIT
  DWPT   - DEWPOINT IN FAHRENHEIT
  RH     - RELATIVE HUMIDITY IN PERCENT
  WIND   - DIRECTION AND SPEED IN MPH
  PRES   - MEAN SEA LEVEL PRESSURE IN INCHES OF HG
  WCI    - WIND CHILL INDEX
  VSB    - VISIBILITY IN MILES
  HX     - HEAT INDEX
  TC     - TEMPERATURE IN CELSIUS
  VRB    - VARIABLE WIND DIRECTION
  N/A    - NOT AVAILABLE
  
      

Other recent Regional Weather Roundups

Sat Mar 2, 8:10am EST

Sat Mar 2, 7:10am EST

Sat Mar 2, 6:10am EST

Sat Mar 2, 5:10am EST

Sat Mar 2, 4:10am EST

Sat Mar 2, 3:10am EST

Sat Mar 2, 2:10am EST

Sat Mar 2, 1:10am EST

Sat Mar 2, 12:10am EST

Fri Mar 1, 11:10pm EST

Fri Mar 1, 10:10pm EST

Fri Mar 1, 9:10pm EST

Fri Mar 1, 8:10pm EST

Fri Mar 1, 7:10pm EST

Fri Mar 1, 6:10pm EST

Fri Mar 1, 5:10pm EST

Fri Mar 1, 4:10pm EST

Fri Mar 1, 3:10pm EST

Fri Mar 1, 2:10pm EST

Fri Mar 1, 1:10pm EST

Fri Mar 1, 12:10pm EST

Fri Mar 1, 11:10am EST

Fri Mar 1, 10:10am EST

Fri Mar 1, 9:10am EST

Fri Mar 1, 8:10am EST

Fri Mar 1, 7:10am EST

Fri Mar 1, 6:10am EST

Fri Mar 1, 5:10am EST

Fri Mar 1, 4:10am EST

Fri Mar 1, 3:10am EST

Fri Mar 1, 2:10am EST

Fri Mar 1, 1:10am EST

Fri Mar 1, 12:10am EST

Thu Feb 29, 11:10pm EST

Thu Feb 29, 10:10pm EST

Thu Feb 29, 9:10pm EST

Thu Feb 29, 8:10pm EST

Thu Feb 29, 7:10pm EST

Thu Feb 29, 6:10pm EST

Thu Feb 29, 5:10pm EST

Thu Feb 29, 4:10pm EST

Thu Feb 29, 3:10pm EST

Thu Feb 29, 2:10pm EST

Thu Feb 29, 1:10pm EST

Thu Feb 29, 12:10pm EST

Thu Feb 29, 11:10am EST

Thu Feb 29, 10:10am EST

Thu Feb 29, 8:10am EST

Thu Feb 29, 7:10am EST

Thu Feb 29, 6:10am EST

Thu Feb 29, 5:10am EST

Thu Feb 29, 4:10am EST

Thu Feb 29, 3:10am EST

Thu Feb 29, 2:10am EST

Thu Feb 29, 1:10am EST

Thu Feb 29, 12:10am EST

Wed Feb 28, 11:10pm EST

Wed Feb 28, 10:10pm EST

Wed Feb 28, 9:10pm EST

Wed Feb 28, 8:10pm EST

Wed Feb 28, 7:10pm EST

Wed Feb 28, 6:10pm EST

Wed Feb 28, 5:10pm EST

Wed Feb 28, 4:10pm EST

Wed Feb 28, 3:10pm EST

Wed Feb 28, 2:10pm EST

Wed Feb 28, 1:10pm EST

Wed Feb 28, 12:10pm EST

Wed Feb 28, 11:10am EST

Wed Feb 28, 10:10am EST

Wed Feb 28, 9:10am EST

Wed Feb 28, 8:10am EST

Wed Feb 28, 7:10am EST

Wed Feb 28, 6:10am EST

Wed Feb 28, 5:10am EST

Wed Feb 28, 4:10am EST

Wed Feb 28, 3:10am EST

Wed Feb 28, 2:10am EST

Wed Feb 28, 1:10am EST

Wed Feb 28, 12:10am EST

Tue Feb 27, 11:10pm EST

Tue Feb 27, 10:10pm EST

Tue Feb 27, 9:10pm EST

Tue Feb 27, 8:10pm EST

Tue Feb 27, 7:10pm EST

Tue Feb 27, 6:10pm EST

Tue Feb 27, 5:10pm EST

Tue Feb 27, 4:10pm EST

Tue Feb 27, 3:10pm EST

Tue Feb 27, 2:10pm EST

Tue Feb 27, 1:10pm EST

Tue Feb 27, 12:10pm EST

Tue Feb 27, 11:10am EST

Tue Feb 27, 10:10am EST

Tue Feb 27, 9:10am EST

Tue Feb 27, 8:10am EST

Tue Feb 27, 7:10am EST

Tue Feb 27, 6:10am EST

Tue Feb 27, 5:10am EST

Tue Feb 27, 4:10am EST

Tue Feb 27, 3:10am EST

Tue Feb 27, 2:10am EST

Tue Feb 27, 1:10am EST

Tue Feb 27, 12:10am EST

Mon Feb 26, 11:10pm EST

Mon Feb 26, 10:10pm EST

Mon Feb 26, 9:10pm EST

Mon Feb 26, 8:10pm EST

Mon Feb 26, 7:10pm EST

Mon Feb 26, 6:10pm EST

Mon Feb 26, 5:10pm EST

Mon Feb 26, 4:10pm EST

Mon Feb 26, 3:10pm EST

Mon Feb 26, 2:10pm EST

Mon Feb 26, 1:10pm EST

Mon Feb 26, 12:10pm EST

Mon Feb 26, 11:10am EST

Mon Feb 26, 10:10am EST

Mon Feb 26, 9:10am EST

Mon Feb 26, 8:10am EST

Mon Feb 26, 7:10am EST

Mon Feb 26, 6:10am EST

Mon Feb 26, 5:10am EST

Mon Feb 26, 4:10am EST

Mon Feb 26, 3:10am EST

Mon Feb 26, 2:10am EST

Mon Feb 26, 1:10am EST

Mon Feb 26, 12:10am EST

Sun Feb 25, 11:10pm EST

Sun Feb 25, 10:10pm EST

Sun Feb 25, 9:10pm EST

Sun Feb 25, 8:10pm EST

Sun Feb 25, 7:10pm EST

Sun Feb 25, 6:10pm EST

Sun Feb 25, 5:10pm EST

Sun Feb 25, 4:10pm EST

Sun Feb 25, 3:10pm EST

Sun Feb 25, 2:10pm EST

Sun Feb 25, 1:10pm EST

Sun Feb 25, 12:10pm EST

Sun Feb 25, 11:10am EST

Sun Feb 25, 10:10am EST

Sun Feb 25, 9:10am EST

Sun Feb 25, 8:10am EST

Sun Feb 25, 7:10am EST

Sun Feb 25, 6:10am EST

Sun Feb 25, 5:10am EST

Sun Feb 25, 4:10am EST

Sun Feb 25, 3:10am EST

Sun Feb 25, 2:10am EST

Sun Feb 25, 1:10am EST

Sun Feb 25, 12:10am EST

Sat Feb 24, 11:10pm EST

Sat Feb 24, 10:10pm EST

Sat Feb 24, 9:10pm EST

Sat Feb 24, 8:10pm EST

Sat Feb 24, 7:10pm EST

Sat Feb 24, 6:10pm EST

Sat Feb 24, 5:10pm EST

Sat Feb 24, 4:10pm EST

Sat Feb 24, 3:10pm EST

Sat Feb 24, 2:10pm EST

Sat Feb 24, 1:10pm EST

Sat Feb 24, 12:10pm EST

Sat Feb 24, 11:10am EST

Sat Feb 24, 10:10am EST

Sat Feb 24, 9:10am EST